This is the latest recevied weather packets stored in our database for station/object W3JGB. If no packets are shown the sender has not sent any weather packets the latest 10 day(s).
| Time | Temp. | Humidity | Pressure | Rain* | Wind** | Luminosity | Snow |
|---|---|---|---|---|---|---|---|
| 1778197419 | 14.44° C | 47% | 1007.9 hPa | 0 mm | - | 9 W/m² | - |
| 1778197116 | 14.44° C | 47% | 1007.8 hPa | 0 mm | - | 12 W/m² | - |
| 1778196814 | 15° C | 44% | 1007.8 hPa | 0 mm | - | 11 W/m² | - |
| 1778196512 | 15° C | 43% | 1008 hPa | 0 mm | - | 9 W/m² | - |
| 1778196208 | 15° C | 42% | 1008 hPa | 0 mm | - | 10 W/m² | - |
| 1778195905 | 15° C | 47% | 1007.6 hPa | 0 mm | - | 20 W/m² | - |
| 1778195602 | 15° C | 42% | 1007.6 hPa | 0 mm | - | 26 W/m² | - |
| 1778195298 | 15.56° C | 41% | 1007.8 hPa | 0 mm | - | 33 W/m² | - |
| 1778194996 | 15.56° C | 44% | 1007.5 hPa | 0 mm | - | 33 W/m² | - |
| 1778194696 | 15.56° C | 42% | 1007.8 hPa | 0 mm | - | 49 W/m² | - |
| 1778194392 | 15.56° C | 44% | 1007.5 hPa | 0 mm | - | 58 W/m² | - |
| 1778194088 | 16.11° C | 41% | 1007.6 hPa | 0 mm | - | 59 W/m² | - |
| 1778193785 | 16.11° C | 39% | 1007.7 hPa | 0 mm | - | 63 W/m² | - |
| 1778193481 | 16.11° C | 39% | 1007.4 hPa | 0 mm | - | 66 W/m² | - |
| 1778193177 | 16.11° C | 39% | 1007.4 hPa | 0 mm | - | 84 W/m² | - |
| 1778192874 | 16.11° C | 39% | 1007.6 hPa | 0 mm | - | 83 W/m² | - |
| 1778192570 | 16.67° C | 39% | 1007.5 hPa | 0 mm | - | 83 W/m² | - |
| 1778192268 | 16.67° C | 38% | 1007.7 hPa | 0 mm | - | 148 W/m² | - |
| 1778191964 | 16.67° C | 41% | 1007.7 hPa | 0 mm | - | 113 W/m² | - |
| 1778191660 | 17.22° C | 37% | 1007.5 hPa | 0 mm | - | 138 W/m² | - |
| 1778191359 | 16.67° C | 39% | 1007.4 hPa | 0 mm | - | 275 W/m² | - |
| 1778191054 | 16.67° C | 39% | 1007.5 hPa | 0 mm | - | 131 W/m² | - |
| 1778190752 | 16.67° C | 38% | 1007.5 hPa | 0 mm | - | 117 W/m² | - |
| 1778190449 | 16.67° C | 40% | 1007.6 hPa | 0 mm | - | 290 W/m² | - |
| 1778190147 | 16.67° C | 39% | 1007.5 hPa | 0 mm | - | 92 W/m² | - |
* Rain latest hour (hover to see other rain measurements)
** Current wind speed in m/s (hover to see current wind gust speed)